Date,TemperatureHighF,TemperatureAvgF,TemperatureLowF,DewpointHighF,DewpointAvgF,DewpointLowF,HumidityHigh,HumidityAvg,HumidityLow,PressureMaxIn,PressureMinIn,WindSpeedMaxMPH,WindSpeedAvgMPH,GustSpeedMaxMPH,PrecipitationSumIn
2013-1-1,37.8,33.4,30.4,36.8,31.3,25.6,96,92,75,30.01,29.83,11,3,23,0.11
2013-1-2,30.3,27.4,25.6,29.3,26.2,24.4,96,95,95,30.11,29.91,0,0,0,0.00
2013-1-3,32.2,26.9,23.6,28.1,23.7,20.3,95,88,73,30.24,30.08,6,1,15,0.03
2013-1-4,29.6,25.3,20.8,22.8,20.0,17.1,88,80,74,30.31,30.23,7,3,19,0.00
2013-1-5,38.2,31.2,24.3,27.4,23.0,19.4,83,72,59,30.34,30.14,8,2,17,0.05
2013-1-6,38.2,33.2,30.5,31.3,28.8,25.7,93,84,75,30.16,29.98,11,5,22,0.01
2013-1-7,43.3,33.0,24.5,28.4,25.0,20.6,86,73,54,30.35,30.17,8,2,18,0.00
2013-1-8,48.4,40.9,33.8,34.0,28.1,23.3,68,60,49,30.27,30.17,10,4,19,0.00
2013-1-9,48.3,45.8,43.5,46.6,40.7,30.6,97,83,58,30.35,30.17,11,4,23,0.08
2013-1-10,60.4,51.2,40.9,51.8,46.5,40.1,97,85,70,30.36,30.08,10,2,22,0.01
2013-1-11,57.7,54.4,50.8,56.0,51.2,44.5,96,89,77,30.06,29.88,18,10,33,0.05
2013-1-12,65.3,60.1,57.0,60.5,57.9,55.8,97,92,83,29.96,29.81,11,4,25,0.03
2013-1-13,62.3,58.6,55.8,56.9,53.6,51.3,95,84,75,29.90,29.76,15,7,31,0.18
2013-1-14,55.9,39.4,30.9,54.8,38.6,30.1,97,97,96,30.23,29.84,11,4,19,0.40
2013-1-15,37.2,32.5,30.1,36.4,31.7,29.4,97,97,97,30.15,29.93,8,1,21,0.27
2013-1-16,48.4,40.8,32.3,47.9,40.3,31.5,98,98,97,29.95,29.79,16,4,33,0.27
2013-1-17,36.6,29.6,25.4,36.1,28.8,24.2,98,97,95,30.21,29.89,4,1,12,0.07
2013-1-18,28.5,25.6,22.7,27.5,24.3,21.2,96,95,92,30.43,30.22,0,0,0,0.13
2013-1-19,37.5,33.2,28.1,30.0,27.9,24.7,91,81,72,30.32,30.02,19,11,30,0.21
2013-1-20,43.9,36.6,31.0,31.7,26.6,18.4,85,68,51,30.04,29.96,12,5,23,0.16
2013-1-21,35.9,29.9,18.6,19.3,14.8,6.3,65,54,41,30.02,29.88,15,5,32,0.00
2013-1-22,18.5,13.9,8.8,4.7,-0.0,-4.0,68,54,40,30.25,30.01,12,6,28,0.00
2013-1-23,32.4,20.6,11.3,23.7,9.9,0.4,70,63,58,30.29,29.97,10,4,25,0.00
2013-1-24,35.0,19.8,13.5,27.2,9.4,1.4,77,64,50,30.42,29.93,16,7,36,0.00
2013-1-25,29.7,22.8,13.5,28.4,17.4,3.6,95,81,56,30.34,29.96,15,6,27,0.00
2013-1-26,29.6,25.3,23.2,28.3,23.0,20.8,95,91,87,30.32,30.05,7,1,17,0.07
2013-1-27,40.4,31.8,20.1,31.1,25.1,18.2,93,78,54,30.35,30.18,15,4,31,0.07
2013-1-28,53.2,44.0,35.7,47.2,38.8,30.6,94,82,75,30.20,30.06,17,9,33,0.12
2013-1-29,60.5,52.6,45.0,53.3,48.1,43.9,97,86,68,30.07,29.73,12,8,26,0.04
2013-1-30,62.7,53.1,35.3,56.2,49.8,33.2,97,89,76,29.67,29.26,22,12,44,1.76
2013-1-31,36.0,27.8,23.5,33.4,21.8,17.8,91,79,66,29.88,29.37,18,9,40,0.01
2013-2-1,30.7,15.0,5.2,26.2,8.3,-1.0,93,75,61,30.35,29.78,18,7,40,0.00
2013-2-2,24.6,19.3,13.8,23.1,14.9,7.1,94,83,69,30.32,29.97,18,9,29,0.00
2013-2-3,28.6,25.8,22.0,26.3,23.1,16.8,94,89,80,30.04,29.82,12,6,35,0.00
2013-2-4,36.9,27.2,19.2,26.1,20.6,15.4,87,76,63,30.04,29.85,12,6,24,0.01
2013-2-5,42.9,37.3,32.6,35.8,30.8,25.3,82,77,67,29.86,29.79,9,4,19,0.01
2013-2-6,46.8,39.5,31.7,32.9,29.9,26.1,90,70,51,30.10,29.87,8,2,20,0.00
2013-2-7,51.4,43.9,39.8,37.5,31.3,25.1,82,62,52,30.08,29.80,11,6,24,0.00
2013-2-8,42.7,36.4,28.1,40.3,32.9,24.5,94,87,77,30.12,29.74,14,8,30,0.05
2013-2-9,43.4,33.1,23.6,24.5,19.7,15.9,88,62,34,30.27,30.12,6,2,17,0.00
2013-2-10,54.2,44.9,39.3,40.9,24.4,17.4,90,48,24,30.14,29.82,19,11,40,0.12
2013-2-11,53.0,47.8,39.4,48.1,40.1,23.1,94,76,47,29.95,29.76,22,8,39,0.13
2013-2-12,47.2,39.5,32.8,28.5,25.3,23.0,69,57,40,30.05,29.78,8,3,19,0.00
2013-2-13,41.2,35.6,29.3,37.3,31.4,26.7,96,86,56,29.82,29.50,10,3,21,0.24
2013-2-14,40.9,34.0,26.3,32.7,28.3,22.4,95,80,70,29.94,29.83,9,5,21,0.00
2013-2-15,44.1,35.2,27.5,36.0,31.3,26.3,95,86,72,29.99,29.85,8,4,18,0.04
2013-2-16,27.4,23.3,18.7,25.9,19.5,11.2,94,86,68,29.95,29.85,9,5,28,0.00
2013-2-17,26.0,18.9,12.4,15.6,10.6,6.7,90,72,46,30.19,29.95,12,6,32,0.00
2013-2-18,46.1,34.6,22.9,30.8,20.0,10.1,60,55,51,30.21,29.82,25,10,46,0.00
2013-2-19,41.1,35.3,28.2,36.9,25.9,14.3,97,71,40,29.97,29.73,22,13,43,0.11
2013-2-20,31.7,25.4,19.9,16.8,13.5,11.4,73,61,48,30.16,29.97,12,5,26,0.00
2013-2-21,40.7,28.5,16.7,29.0,17.0,12.7,84,64,42,30.20,30.01,4,0,14,0.14
2013-2-22,51.5,43.6,32.8,43.8,39.1,29.6,93,84,74,30.02,29.85,18,10,36,0.13
2013-2-23,54.4,46.1,39.2,45.2,41.5,34.2,97,84,68,29.85,29.68,7,2,17,0.00
2013-2-24,43.2,35.7,29.7,33.8,25.8,21.8,85,68,47,30.00,29.74,10,5,19,0.00
2013-2-25,48.7,36.8,26.3,30.8,25.6,21.0,81,65,47,30.00,29.78,9,2,23,0.00
2013-2-26,47.0,41.1,36.5,42.1,36.3,30.4,92,83,70,29.78,29.30,19,10,40,0.36
2013-2-27,38.4,33.8,30.3,34.3,30.7,28.5,95,88,82,29.69,29.47,9,5,28,0.01
2013-2-28,28.6,27.2,25.4,27.1,24.6,22.3,94,90,82,29.85,29.64,9,6,25,0.00
2013-3-1,30.4,28.4,26.9,28.4,27.0,25.4,95,94,92,29.86,29.80,6,2,14,0.07
2013-3-2,27.4,23.5,19.6,26.2,21.6,17.4,95,92,88,29.94,29.79,1,0,12,0.00
2013-3-3,22.5,19.9,17.2,19.8,17.3,15.0,92,89,83,30.00,29.92,8,5,21,0.00
2013-3-4,40.7,29.3,17.7,23.3,18.3,14.5,87,66,42,30.11,29.92,7,2,16,0.09
2013-3-5,44.6,39.3,28.6,43.5,33.0,22.0,96,80,52,29.93,29.43,15,7,35,0.81
2013-3-6,27.2,24.2,22.3,25.1,22.2,19.5,94,92,86,30.14,29.59,12,8,28,0.00
2013-3-7,27.3,25.2,23.8,24.8,23.4,22.3,94,93,90,30.27,30.12,4,2,13,0.00
2013-3-8,35.9,28.8,23.6,29.1,24.8,21.9,94,85,73,30.32,30.23,7,2,15,0.01
2013-3-9,59.0,45.1,29.2,33.7,26.6,23.8,81,53,30,30.26,30.01,8,2,20,0.00
2013-3-10,65.0,55.5,48.9,39.0,33.1,28.0,48,43,37,30.01,29.85,19,10,36,0.00
2013-3-11,55.8,51.4,47.4,46.9,42.0,32.3,95,72,46,29.86,29.61,19,14,41,0.36
2013-3-12,47.4,37.5,31.5,46.3,33.6,28.3,96,86,69,29.94,29.65,9,4,19,0.19
2013-3-13,35.8,29.3,23.4,28.8,22.6,16.0,91,76,65,30.17,29.91,13,8,33,0.01
2013-3-14,37.5,27.2,19.7,19.1,16.4,14.7,87,65,44,30.27,30.13,11,6,27,0.00
2013-3-15,55.8,41.4,29.4,39.8,27.9,16.5,69,59,48,30.15,29.77,11,5,26,0.00
2013-3-16,66.1,57.0,49.8,52.0,46.8,40.0,83,69,53,29.76,29.52,12,6,31,0.10
2013-3-17,57.0,44.5,40.7,48.8,42.4,39.4,97,93,74,29.88,29.70,5,1,16,0.12
2013-3-18,50.9,45.1,41.1,45.9,42.4,38.7,96,90,78,29.83,29.63,19,9,40,0.89
2013-3-19,47.4,41.1,33.2,46.2,27.3,9.5,96,63,29,29.99,29.62,15,9,35,0.09
2013-3-20,43.1,34.4,27.3,27.4,16.0,8.4,92,49,30,29.99,29.74,15,7,33,0.00
2013-3-21,26.4,20.5,15.0,23.3,12.3,8.8,88,70,58,29.95,29.75,11,7,23,0.00
2013-3-22,41.2,27.0,15.6,19.3,13.8,10.1,81,59,39,30.01,29.89,5,1,20,0.00
2013-3-23,45.7,38.0,32.9,35.5,24.9,15.4,70,59,46,29.95,29.77,1,0,6,0.00
2013-3-24,43.9,40.5,37.7,40.9,36.4,29.6,94,86,65,29.75,29.23,15,6,31,0.88
2013-3-25,37.7,28.3,25.1,35.9,23.1,-99.9,93,88,73,29.80,29.34,14,9,33,0.08
2013-3-26,28.8,26.5,25.1,25.9,24.6,23.4,94,92,84,30.13,29.81,10,7,23,0.00
2013-3-27,32.4,28.4,25.3,25.3,22.6,20.5,94,79,65,30.21,30.12,9,6,21,0.01
2013-3-28,41.4,33.0,27.4,27.6,22.9,19.7,78,67,52,30.24,30.16,8,4,18,0.00
2013-3-29,49.6,39.3,32.9,33.4,25.9,21.9,89,60,37,30.22,30.08,7,3,19,0.00
2013-3-30,53.0,42.7,33.2,37.8,34.6,31.7,94,75,51,30.14,29.90,5,2,20,0.00
2013-3-31,51.9,47.1,42.3,46.9,43.4,38.0,96,87,68,29.89,29.69,15,5,26,0.26
2013-4-1,49.2,44.3,37.5,43.1,38.1,28.6,93,80,54,29.92,29.72,12,5,30,0.01
2013-4-2,43.5,36.0,28.3,29.2,20.5,15.3,74,55,34,30.10,29.93,9,4,21,0.00
2013-4-3,45.5,36.7,27.9,23.8,18.5,15.1,61,48,34,30.22,30.09,9,2,20,0.00
2013-4-4,41.8,36.3,32.7,33.4,23.6,14.0,96,64,38,30.18,29.88,7,2,18,0.69
2013-4-5,54.0,42.5,34.4,42.3,34.5,29.9,97,77,44,29.95,29.85,8,2,19,0.02
2013-4-6,61.8,51.9,41.0,39.9,32.8,29.5,65,49,30,30.05,29.91,10,3,27,0.00
2013-4-7,65.3,57.3,49.9,45.4,39.4,33.9,58,51,41,29.96,29.86,14,9,29,0.00
2013-4-8,69.7,61.0,53.1,51.3,47.2,43.2,69,61,50,29.92,29.83,11,5,32,0.00
2013-4-9,73.4,66.4,57.3,55.6,52.3,48.8,74,61,43,29.98,29.84,10,4,28,0.00
2013-4-10,78.3,70.1,61.1,60.3,54.8,51.9,74,59,41,29.89,29.69,10,3,25,0.00
2013-4-11,75.6,67.8,60.8,57.5,54.3,50.5,89,63,43,29.70,29.46,12,6,33,0.08
2013-4-12,57.7,52.7,47.0,54.5,43.2,-99.9,95,78,53,29.77,29.35,15,6,33,0.89
2013-4-13,60.5,51.8,42.9,38.7,35.7,33.2,78,56,37,29.90,29.77,12,4,31,0.00
2013-4-14,68.9,59.0,49.9,44.7,37.9,32.9,75,46,36,29.91,29.78,12,5,28,0.04
2013-4-15,51.0,49.5,49.2,47.3,46.6,45.4,93,90,81,29.83,29.78,4,2,14,0.10
2013-4-16,74.5,64.6,55.0,59.6,54.4,49.9,86,71,52,30.07,29.91,17,7,31,0.00
2013-4-17,68.4,59.3,55.6,59.0,56.0,54.5,97,89,72,30.13,29.92,17,4,32,0.74
2013-4-18,72.4,66.0,60.4,60.1,56.2,52.8,85,71,54,29.91,29.65,13,8,37,0.23
2013-4-19,64.8,54.4,38.8,58.3,49.7,32.8,96,85,75,29.84,29.46,19,9,43,0.12
2013-4-20,51.2,41.2,32.0,32.2,28.6,25.9,81,62,42,30.20,29.85,10,5,30,0.00
2013-4-21,56.7,46.0,33.4,34.6,30.4,25.7,74,56,39,30.31,30.18,11,2,24,0.00
2013-4-22,61.6,50.7,39.3,43.7,36.0,31.2,79,59,42,30.23,30.04,10,3,23,0.00
2013-4-23,65.4,54.8,42.4,42.9,36.4,27.9,60,50,42,30.06,29.85,9,4,20,0.00
2013-4-24,64.7,54.4,37.1,55.8,46.4,35.8,95,76,56,30.06,29.77,15,8,35,0.17
2013-4-25,56.9,44.5,35.1,36.2,33.0,28.7,95,68,36,30.23,30.06,7,2,16,0.00
2013-4-26,60.9,51.2,36.3,39.4,34.3,29.5,77,53,37,30.28,30.16,2,0,12,0.00
2013-4-27,55.9,52.3,49.6,48.8,42.9,35.1,95,72,50,30.19,29.99,11,5,23,0.20
2013-4-28,53.4,50.3,46.2,50.5,48.3,44.8,96,93,88,29.99,29.80,22,11,40,0.28
2013-4-29,59.3,54.1,50.5,54.4,51.1,48.1,96,90,81,29.88,29.81,7,2,20,0.08
2013-4-30,72.3,62.6,54.0,57.8,53.1,50.6,90,73,47,29.93,29.82,7,2,17,0.00
2013-5-1,66.2,60.2,53.3,55.0,52.0,49.8,90,75,61,30.07,29.93,11,4,23,0.00
2013-5-2,66.1,58.2,52.4,55.6,51.3,47.9,89,78,66,30.09,30.00,11,4,24,0.00
2013-5-3,63.2,56.1,50.5,50.0,44.9,37.5,87,68,39,30.02,29.90,11,5,27,0.00
2013-5-4,57.3,51.8,44.6,47.2,41.2,35.8,81,68,51,29.90,29.82,13,8,30,0.00
2013-5-5,52.3,49.0,45.4,48.3,44.5,39.0,93,84,72,29.87,29.70,14,8,30,0.35
2013-5-6,61.2,53.6,49.8,53.6,49.8,47.6,95,87,68,29.75,29.63,17,5,33,0.23
2013-5-7,52.2,49.7,46.1,50.8,48.3,44.7,97,95,87,29.81,29.70,4,0,11,0.36
2013-5-8,57.2,53.3,50.0,54.3,51.6,49.2,97,94,86,29.89,29.76,6,2,17,0.07
2013-5-9,69.0,60.2,52.0,58.3,53.7,49.6,94,80,58,29.93,29.85,7,2,18,0.01
2013-5-10,69.2,63.0,58.7,59.8,56.1,53.2,86,78,69,29.89,29.75,9,4,26,0.00
2013-5-11,64.7,58.5,50.1,59.4,54.7,46.7,96,87,73,29.78,29.66,8,3,21,0.33
2013-5-12,49.6,47.2,40.5,46.7,45.2,38.9,95,93,88,29.83,29.76,6,2,17,0.08
2013-5-13,54.8,46.4,39.0,34.0,31.3,27.6,75,57,40,30.06,29.96,10,4,25,0.00
2013-5-14,67.2,55.5,43.9,53.0,41.3,31.1,70,59,51,30.08,29.84,10,5,26,0.00
2013-5-15,79.1,67.6,57.1,62.1,56.3,52.0,87,69,43,29.92,29.76,12,6,23,0.00
2013-5-16,73.2,67.1,62.3,60.0,55.5,51.3,83,67,54,29.85,29.76,6,2,21,0.00
2013-5-17,74.9,66.0,58.4,64.1,59.0,55.5,95,79,60,29.92,29.81,5,1,18,1.17
2013-5-18,66.8,62.4,59.6,62.5,59.5,56.7,96,90,84,29.94,29.84,6,3,18,0.21
2013-5-19,74.4,64.1,60.2,67.2,61.5,59.1,97,92,76,29.90,29.79,6,4,18,0.10
2013-5-20,72.1,64.7,60.1,66.6,62.4,59.2,97,92,83,29.95,29.83,8,3,21,0.59
2013-5-21,77.5,68.8,62.2,68.5,63.8,58.2,96,85,70,29.86,29.72,10,3,23,0.04
2013-5-22,77.5,65.9,57.7,67.1,60.1,55.7,95,82,62,29.77,29.66,12,6,43,0.22
2013-5-23,69.4,61.8,54.5,60.8,58.0,52.8,96,88,72,29.78,29.67,8,4,25,0.19
2013-5-24,55.7,49.6,42.3,52.5,44.1,39.6,97,83,58,30.14,29.77,9,4,26,0.15
2013-5-25,59.0,50.6,40.3,44.9,40.9,35.9,90,70,52,30.22,30.09,5,1,15,0.00
2013-5-26,64.9,56.3,47.5,52.7,46.5,41.0,82,70,58,30.14,30.05,4,1,15,0.00
2013-5-27,73.3,64.2,54.5,59.3,53.6,46.5,77,69,59,30.06,29.91,8,4,20,0.00
2013-5-28,65.5,63.5,62.0,58.1,57.1,56.1,82,80,77,29.94,29.89,6,4,18,0.00
2013-5-29,78.7,70.6,62.2,64.7,60.2,56.6,82,70,55,30.01,29.90,6,2,20,0.00
2013-5-30,79.4,71.0,63.6,64.6,60.1,57.0,79,69,51,30.04,29.91,7,3,24,0.00
2013-5-31,78.9,71.3,64.0,65.5,60.8,57.1,80,70,56,29.98,29.86,9,4,22,0.00
2013-6-1,80.2,72.4,65.2,67.5,62.3,58.9,84,71,58,29.88,29.73,13,5,31,0.00
2013-6-2,69.6,64.5,62.0,63.6,62.0,60.8,97,92,74,29.78,29.70,11,4,26,0.56
2013-6-3,70.1,63.4,59.3,63.8,60.3,56.9,98,90,74,29.86,29.72,6,1,17,0.01
2013-6-4,59.0,57.7,56.2,56.7,56.0,54.8,96,94,92,29.86,29.83,0,0,0,0.00
2013-6-5,76.8,67.7,61.7,66.6,61.4,56.9,97,81,65,29.88,29.73,13,3,42,0.45
2013-6-6,74.3,66.7,61.7,67.6,63.4,60.5,97,89,75,29.76,29.59,9,3,24,1.04
2013-6-7,67.8,63.1,59.5,64.3,61.8,58.1,98,95,83,29.71,29.53,3,0,15,0.17
2013-6-8,71.8,65.4,57.4,64.4,60.6,56.6,97,85,72,29.90,29.69,4,0,13,0.04
2013-6-9,77.5,68.0,62.9,65.5,62.4,59.9,97,83,63,29.96,29.82,9,3,23,0.46
2013-6-10,63.6,63.3,63.1,62.5,62.4,62.2,97,97,96,29.81,29.72,9,6,21,0.00
2013-6-11,73.8,66.1,59.7,63.6,60.9,58.1,95,84,69,29.85,29.75,5,1,16,0.00
2013-6-12,83.8,75.1,66.3,72.2,67.8,61.7,92,79,63,29.83,29.67,7,3,21,0.00
2013-6-13,76.2,68.5,59.0,71.4,65.6,57.0,95,90,82,29.70,29.51,10,4,33,0.40
2013-6-14,69.6,62.4,55.6,58.2,56.2,54.2,96,81,65,29.90,29.70,6,2,18,0.01
2013-6-15,75.3,67.1,59.0,61.6,58.0,54.5,85,73,56,29.98,29.86,4,1,16,0.00
2013-6-16,74.7,69.2,63.2,67.8,63.7,59.5,95,83,76,29.92,29.83,5,2,16,0.00
2013-6-17,75.7,68.2,63.2,69.2,64.8,60.4,97,90,76,29.85,29.74,6,2,26,0.53
2013-6-18,67.7,66.0,64.0,65.0,61.8,59.6,94,86,78,29.75,29.66,4,1,13,0.03
2013-6-19,74.7,66.4,59.8,64.9,61.9,58.9,98,86,67,29.93,29.79,1,0,11,0.01
2013-6-20,77.3,68.7,61.4,66.2,62.9,59.7,94,82,64,30.02,29.92,3,1,11,0.00
2013-6-21,79.2,69.7,64.1,68.6,64.0,60.2,91,82,66,30.06,29.98,6,2,14,0.00
2013-6-22,79.5,71.2,62.5,64.9,61.7,58.6,90,73,53,30.05,29.92,6,2,17,0.00
2013-6-23,79.3,72.7,65.1,68.1,62.9,59.1,84,72,59,30.02,29.91,6,2,17,0.00
2013-6-24,76.0,70.1,66.7,69.4,64.8,61.6,95,83,73,30.01,29.92,5,2,16,0.60
2013-6-25,70.0,67.6,65.9,65.6,64.9,64.2,96,91,84,29.94,29.89,4,1,12,0.00
2013-6-26,78.4,69.4,65.2,71.3,67.1,64.0,98,93,77,29.84,29.71,7,3,21,0.12
2013-6-27,74.1,67.9,62.3,69.6,65.6,60.5,98,93,85,29.70,29.58,11,3,30,0.24
2013-6-28,76.5,70.2,65.9,69.3,65.3,61.6,98,85,67,29.62,29.45,10,2,27,0.01
2013-6-29,74.5,68.6,62.9,65.8,62.6,59.2,95,82,69,29.51,29.43,5,2,17,0.00
2013-6-30,78.5,70.4,63.2,65.7,61.5,58.8,96,75,54,29.64,29.50,5,3,17,1.05
2013-7-1,77.0,67.3,61.3,68.7,63.8,60.7,98,90,69,29.75,29.59,5,2,25,2.33
2013-7-2,64.0,63.5,63.1,62.5,62.0,61.7,96,95,94,29.75,29.73,6,3,18,0.00
2013-7-3,69.5,65.8,61.8,66.7,63.7,59.8,97,93,88,30.03,29.87,7,4,17,0.37
2013-7-4,76.0,67.1,61.4,69.9,64.5,60.0,97,92,76,30.03,29.95,8,4,36,0.32
2013-7-5,76.5,69.7,64.8,68.8,65.5,63.0,96,87,76,30.01,29.94,8,4,22,0.00
2013-7-6,77.6,70.1,63.3,69.4,65.6,62.4,97,86,72,30.00,29.89,7,4,21,0.43
2013-7-7,70.4,66.6,64.0,67.7,65.3,63.4,98,96,90,29.99,29.89,4,1,14,0.31
2013-7-8,77.0,69.2,62.6,68.7,65.6,62.0,99,89,73,30.03,29.94,5,2,13,0.01
2013-7-9,79.2,73.6,67.2,72.1,67.8,62.8,93,82,73,29.97,29.87,3,1,12,0.09
2013-7-10,75.2,71.4,68.2,72.2,69.2,67.3,97,93,86,29.88,29.74,6,2,17,0.63
2013-7-11,75.4,69.3,65.0,71.2,66.6,63.5,98,91,79,29.80,29.72,3,0,12,0.08
2013-7-12,72.1,66.1,61.6,66.1,62.9,54.8,98,90,75,29.86,29.74,2,0,15,0.00
2013-7-13,75.5,68.2,59.9,66.2,62.6,58.3,96,83,70,29.94,29.82,6,2,18,0.00
2013-7-14,76.9,71.7,66.5,69.9,66.7,63.8,96,85,73,30.08,29.92,8,3,24,0.12
2013-7-15,82.7,74.1,66.2,70.7,66.2,62.9,90,77,63,30.15,30.06,6,2,13,0.00
2013-7-16,82.5,75.8,68.6,72.1,67.7,62.9,88,76,66,30.15,30.07,4,1,11,0.00
2013-7-17,81.5,73.2,67.7,75.1,70.0,66.7,98,90,81,30.12,30.00,5,1,17,0.35
2013-7-18,81.7,71.9,66.4,75.3,68.9,65.2,98,91,76,30.03,29.90,3,0,16,0.12
2013-7-19,78.7,72.3,68.3,73.9,68.6,64.8,95,88,81,29.92,29.80,5,2,14,0.43
2013-7-20,81.7,72.5,66.9,73.0,68.4,64.3,97,87,75,29.83,29.73,6,2,19,0.02
2013-7-21,75.7,70.0,66.7,71.7,68.5,64.9,98,95,84,29.85,29.74,5,2,15,0.34
2013-7-22,76.7,69.1,65.3,70.5,67.0,64.5,99,94,80,29.81,29.64,7,3,21,0.08
2013-7-23,78.0,71.0,65.8,68.4,66.3,65.1,98,86,66,29.70,29.61,7,2,17,0.13
2013-7-24,75.0,69.8,64.8,69.1,66.5,62.7,98,90,76,29.73,29.59,3,1,15,0.00
2013-7-25,71.2,64.1,59.2,62.7,59.8,56.6,98,87,69,29.92,29.72,2,0,11,0.00
2013-7-26,78.2,68.2,57.8,67.1,61.1,54.6,89,79,68,29.92,29.81,5,1,15,0.00
2013-7-27,74.8,67.9,64.4,67.3,64.7,62.6,95,90,73,29.82,29.70,5,2,15,0.13
2013-7-28,74.1,66.2,59.4,65.5,61.0,55.8,98,85,57,29.92,29.72,4,1,16,0.02
2013-7-29,71.4,62.6,55.2,59.5,55.6,52.6,94,79,63,30.07,29.89,1,0,10,0.00
2013-7-30,72.3,66.0,59.0,63.0,58.1,53.0,87,76,66,30.07,29.97,3,0,9,0.00
2013-7-31,65.5,62.9,59.4,64.6,60.7,57.2,98,93,81,29.99,29.82,5,2,18,0.35
2013-8-1,74.7,67.3,64.3,68.5,64.9,62.7,99,92,78,29.83,29.75,5,2,16,0.27
2013-8-2,75.6,67.9,60.9,65.9,61.9,59.5,96,82,64,29.88,29.80,1,0,7,0.00
2013-8-3,76.8,70.6,65.5,69.4,64.2,59.3,90,80,71,29.85,29.78,4,1,12,0.00
2013-8-4,73.6,67.3,61.0,66.5,63.0,58.6,98,87,66,29.91,29.79,2,1,13,0.14
2013-8-5,75.7,66.0,58.0,65.6,61.0,56.9,97,85,65,29.92,29.81,2,0,13,0.00
2013-8-6,77.0,69.4,63.4,68.9,64.4,60.3,91,84,74,29.85,29.76,4,1,14,0.00
2013-8-7,71.7,69.3,67.1,70.1,67.2,65.5,96,93,89,29.85,29.78,7,4,22,0.07
2013-8-8,73.9,69.6,66.3,70.8,68.1,65.2,97,95,90,29.86,29.79,5,3,19,0.41
2013-8-9,79.6,72.4,67.5,74.7,70.0,66.4,97,92,83,29.89,29.78,8,3,18,0.05
2013-8-10,75.7,69.8,66.6,73.0,68.6,65.1,99,96,89,29.94,29.85,5,1,16,0.40
2013-8-11,78.7,70.1,66.2,73.1,68.4,65.8,99,95,78,29.98,29.85,5,2,17,0.62
2013-8-12,76.6,69.4,65.4,72.0,67.9,64.1,99,95,84,29.92,29.78,7,2,19,0.34
2013-8-13,74.6,67.4,63.4,69.4,65.9,62.6,99,95,84,29.80,29.67,6,2,17,0.36
2013-8-14,64.9,59.2,54.4,61.9,55.1,50.8,98,87,71,29.98,29.77,2,0,14,0.00
2013-8-15,72.0,61.5,49.7,63.0,56.1,48.3,95,83,69,29.98,29.89,4,1,12,0.00
2013-8-16,73.6,65.0,55.7,62.4,58.1,53.2,92,79,63,29.94,29.90,3,1,14,0.00
2013-8-17,67.6,63.1,58.4,61.5,57.2,51.7,95,81,69,30.00,29.93,4,1,16,0.04
2013-8-18,74.1,65.6,60.3,67.5,62.6,59.4,97,90,74,30.02,29.94,5,2,17,0.04
2013-8-19,73.0,66.5,62.4,68.9,64.6,61.8,98,94,84,29.98,29.90,4,1,14,0.04
2013-8-20,65.9,65.6,64.9,64.4,64.0,63.4,96,95,93,29.94,29.92,1,0,6,0.00
2013-8-21,75.7,68.4,62.3,70.7,65.7,59.2,97,92,82,30.03,29.94,6,2,19,0.01
2013-8-22,77.4,69.6,63.0,71.2,65.7,60.4,97,88,70,30.00,29.86,3,1,13,0.00
2013-8-23,74.9,69.3,65.8,68.5,65.7,62.9,95,88,77,29.94,29.83,3,0,13,0.01
2013-8-24,75.3,67.9,60.5,63.6,58.6,53.9,98,74,48,30.11,29.94,3,1,13,0.01
2013-8-25,74.3,66.7,58.3,60.6,56.1,53.4,84,70,52,30.20,30.10,6,2,19,0.00
2013-8-26,75.4,67.9,60.5,67.5,61.7,56.6,88,81,70,30.13,29.97,4,1,12,0.00
2013-8-27,77.4,70.6,65.8,70.4,66.4,62.9,94,87,79,29.97,29.85,4,1,13,0.00
2013-8-28,79.9,73.5,68.3,72.1,68.5,66.5,97,85,69,29.87,29.75,4,1,16,0.00
2013-8-29,78.6,72.8,68.8,71.7,68.9,67.3,96,88,74,29.84,29.74,6,1,17,0.00
2013-8-30,81.7,73.2,66.9,71.1,67.7,64.5,95,83,67,29.83,29.72,5,2,17,0.01
2013-8-31,74.9,69.7,66.8,72.4,67.2,64.0,99,92,82,29.76,29.69,6,2,31,0.11
2013-9-1,73.8,68.5,65.0,71.0,66.6,64.3,98,94,88,29.73,29.65,5,2,16,0.22
2013-9-2,78.5,69.2,65.2,72.5,67.2,64.5,98,93,82,29.75,29.65,6,1,29,1.64
2013-9-3,72.2,66.7,62.6,67.6,63.0,59.4,98,88,72,29.86,29.67,6,1,17,0.02
2013-9-4,73.4,63.6,55.1,64.2,59.3,54.5,98,87,65,29.99,29.86,1,0,7,0.01
2013-9-5,72.8,64.9,56.8,64.4,59.6,55.4,96,84,67,30.02,29.94,2,0,11,0.01
2013-9-6,74.7,67.1,60.7,64.2,60.0,56.4,90,79,62,30.02,29.92,2,0,10,0.00
2013-9-7,76.0,68.6,60.4,64.7,61.1,55.5,86,77,62,29.93,29.82,2,0,11,0.00
2013-9-8,76.5,70.0,66.1,69.1,65.1,61.7,90,85,74,29.84,29.78,3,0,10,0.01
2013-9-9,80.6,72.5,65.7,69.9,66.7,63.3,93,83,65,29.94,29.84,6,1,15,0.00
2013-9-10,81.3,73.3,66.1,71.4,67.3,63.4,91,82,70,30.04,29.93,4,2,13,0.00
2013-9-11,76.8,71.0,67.0,70.9,67.2,65.4,96,88,82,30.03,29.92,3,0,14,0.70
2013-9-12,79.6,69.8,63.4,72.0,66.4,60.9,97,89,73,29.91,29.69,9,0,30,0.17
2013-9-13,65.0,60.3,51.1,62.6,56.0,48.0,98,86,65,29.86,29.67,5,2,17,0.01
2013-9-14,63.3,53.9,46.2,53.4,48.6,44.8,97,83,66,29.98,29.86,2,0,11,0.00
2013-9-15,71.6,61.9,53.1,61.2,54.8,47.8,89,78,65,30.03,29.94,3,1,15,0.00
2013-9-16,65.7,62.1,58.8,61.2,58.3,55.8,95,87,81,30.03,29.93,1,0,10,0.00
2013-9-17,70.5,59.0,49.9,62.2,54.8,49.1,98,87,72,30.11,30.03,5,1,15,0.02
2013-9-18,60.7,57.4,54.8,57.4,54.5,50.8,98,90,80,30.08,30.00,7,3,21,0.08
2013-9-19,68.8,62.4,58.1,66.7,61.3,57.5,98,96,91,30.02,29.90,3,1,13,0.47
2013-9-20,75.1,68.1,61.8,69.0,64.5,60.9,97,89,76,29.91,29.71,4,2,17,0.00
2013-9-21,65.7,61.4,55.2,63.0,60.0,54.4,97,95,91,29.70,29.55,9,2,28,0.72
2013-9-22,62.9,55.0,49.5,55.4,52.0,48.1,98,90,70,29.84,29.66,2,0,12,0.01
2013-9-23,66.3,54.3,44.1,58.9,51.3,43.3,98,90,74,29.93,29.82,1,0,11,0.01
2013-9-24,71.2,63.0,53.6,59.6,56.4,51.3,92,80,65,29.91,29.74,3,0,13,0.00
2013-9-25,64.9,60.8,58.0,61.1,58.4,56.0,97,92,84,29.74,29.67,3,0,12,0.12
2013-9-26,68.5,60.3,55.3,58.4,56.6,54.7,98,88,66,29.92,29.72,1,0,9,0.01
2013-9-27,70.3,62.0,55.8,59.4,54.4,50.6,95,78,53,29.99,29.88,1,0,8,0.00
2013-9-28,70.6,60.9,52.8,59.2,54.1,49.9,90,79,59,30.06,29.95,7,2,17,0.00
2013-9-29,65.2,58.4,53.1,58.9,54.4,49.8,94,87,77,29.98,29.88,7,1,20,0.00
2013-9-30,67.3,60.6,55.7,60.3,57.0,54.2,96,88,74,29.92,29.83,3,1,13,0.00
2013-10-1,70.7,63.0,57.2,61.2,57.6,54.3,93,83,70,29.98,29.88,4,1,12,0.00
2013-10-2,73.6,66.1,60.2,62.2,59.3,56.3,89,79,66,30.00,29.90,2,0,9,0.00
2013-10-3,74.7,67.5,61.7,64.8,61.3,59.0,91,81,69,29.96,29.88,3,1,11,0.00
2013-10-4,76.1,67.9,61.8,65.1,61.3,58.9,91,80,63,29.99,29.91,2,0,10,0.00
2013-10-5,77.6,69.3,63.2,67.0,62.5,58.9,88,80,67,29.97,29.82,5,1,17,0.00
2013-10-6,75.7,68.7,62.9,64.6,61.4,59.2,91,78,61,29.81,29.62,7,4,24,0.00
2013-10-7,66.6,53.8,47.0,60.7,49.3,43.3,96,86,67,29.99,29.61,10,2,26,0.27
2013-10-8,64.3,52.3,42.3,50.4,45.1,40.7,94,78,53,30.07,29.96,4,1,16,0.00
2013-10-9,68.6,57.0,48.0,51.3,45.8,39.2,81,67,53,30.07,29.98,4,1,15,0.00
2013-10-10,64.2,57.2,52.0,52.2,46.0,41.0,77,66,55,30.00,29.91,1,0,12,0.00
2013-10-11,67.0,59.0,52.3,54.8,48.4,42.9,87,69,42,29.92,29.83,3,1,14,0.00
2013-10-12,62.9,58.6,55.3,59.0,56.1,53.9,95,91,87,29.96,29.82,1,0,7,0.00
2013-10-13,58.2,57.2,56.3,56.8,55.9,55.0,96,95,94,30.01,29.96,0,0,4,0.00
2013-10-14,67.5,61.2,56.3,61.0,58.2,54.3,98,90,77,30.09,29.97,4,0,11,0.00
2013-10-15,67.4,59.9,52.6,58.8,54.7,50.6,93,83,67,30.00,29.86,4,2,15,0.00
2013-10-16,61.0,57.6,54.5,57.5,54.8,51.1,96,90,85,29.87,29.80,5,2,16,0.00
2013-10-17,61.1,55.1,45.5,60.0,54.1,44.4,97,96,95,29.85,29.65,8,3,20,0.07
2013-10-18,57.5,48.4,41.9,46.6,43.4,40.8,96,84,62,29.96,29.83,0,0,2,0.01
2013-10-19,55.3,48.2,41.1,48.9,44.4,38.4,94,87,72,29.87,29.72,7,2,18,0.01
2013-10-20,55.5,44.9,35.7,38.4,36.1,34.2,95,74,48,29.99,29.87,3,0,11,0.00
2013-10-21,60.9,51.7,44.6,46.2,41.1,33.6,82,68,56,29.96,29.81,6,2,19,0.00
2013-10-22,53.3,46.8,43.2,45.7,43.4,42.1,96,88,66,29.84,29.71,4,0,16,0.02
2013-10-23,43.5,38.5,32.1,42.7,36.8,29.5,97,93,84,29.94,29.62,10,4,27,0.04
2013-10-24,39.4,34.1,31.1,34.0,30.8,27.7,95,88,77,30.11,29.94,7,2,18,0.05
2013-10-25,34.9,30.4,26.1,30.6,27.0,23.1,95,88,70,30.34,30.11,7,2,15,0.04
2013-10-26,46.3,37.1,27.8,33.7,28.0,23.0,82,70,57,30.25,29.96,9,6,22,0.00
2013-10-27,59.0,49.7,40.1,44.7,40.0,33.7,81,70,56,30.00,29.89,8,2,21,0.00
2013-10-28,55.0,51.1,48.6,52.2,48.3,44.6,96,90,80,30.11,29.95,6,1,14,0.09
2013-10-29,60.0,54.6,50.9,53.8,50.5,48.8,96,86,70,30.18,30.07,4,1,14,0.02
2013-10-30,64.5,57.9,51.0,58.5,53.7,48.7,96,86,77,30.09,29.99,9,3,22,0.33
2013-10-31,63.5,60.2,56.9,55.4,53.7,52.2,89,79,70,29.95,29.44,21,8,44,0.01
2013-11-1,65.3,59.9,52.2,58.0,51.3,42.7,95,75,52,29.61,29.43,25,6,47,0.35
2013-11-2,52.9,48.3,42.5,42.8,38.5,34.2,82,69,57,29.88,29.57,10,4,23,0.00
2013-11-3,47.2,41.0,37.0,37.0,34.5,30.5,91,78,64,30.24,29.90,7,1,15,0.00
2013-11-4,52.8,44.9,37.3,35.5,32.0,29.8,74,61,51,30.32,30.21,10,3,24,0.00
2013-11-5,57.1,48.5,40.2,34.7,31.3,28.6,66,52,38,30.34,30.21,8,2,17,0.00
2013-11-6,65.7,57.1,47.5,53.6,48.5,35.9,87,73,63,30.21,29.88,12,6,26,0.00
2013-11-7,55.9,43.9,33.4,50.6,39.8,27.9,95,86,72,30.13,29.81,9,5,21,0.18
2013-11-8,42.0,36.0,30.5,28.5,25.7,23.2,83,67,50,30.27,30.12,9,3,18,0.00
2013-11-9,49.1,41.9,35.2,31.5,27.1,22.7,61,56,48,30.18,30.06,13,7,25,0.00
2013-11-10,53.3,45.0,35.7,37.5,30.4,23.9,77,58,37,30.19,30.06,13,5,26,0.00
2013-11-11,58.2,46.0,34.4,30.2,24.6,21.6,65,45,25,30.20,29.98,6,3,16,0.00
2013-11-12,50.2,31.0,20.2,36.2,23.9,17.3,94,79,39,30.47,29.92,10,6,23,0.00
2013-11-13,32.1,24.7,17.6,20.3,17.8,15.0,90,76,59,30.56,30.37,8,3,15,0.00
2013-11-14,47.8,37.4,28.4,25.2,19.6,16.3,64,49,37,30.36,30.14,11,6,19,0.00
2013-11-15,50.2,43.9,37.8,44.1,30.5,18.4,95,62,40,30.17,30.03,11,5,20,0.06
2013-11-16,59.9,52.7,45.0,52.3,48.4,43.7,95,86,75,30.07,29.92,18,5,35,0.00
2013-11-17,62.3,56.7,51.7,57.3,52.8,47.7,96,87,74,29.92,29.61,20,12,38,0.45
2013-11-18,56.6,48.8,38.0,55.5,38.9,28.2,96,69,50,29.98,29.65,11,7,25,0.00
2013-11-19,39.9,33.8,29.4,28.3,26.2,24.5,86,74,61,30.18,29.97,9,3,18,0.00
2013-11-20,47.5,38.8,29.6,30.0,26.6,24.6,82,62,48,30.25,30.11,8,3,20,0.00
2013-11-21,60.5,49.6,37.3,50.0,41.6,27.7,88,74,65,30.26,30.13,9,6,23,0.00
2013-11-22,53.8,51.9,46.1,52.0,50.0,45.0,96,93,88,30.13,29.99,13,5,25,0.16
2013-11-23,45.0,34.3,23.3,43.9,30.9,15.6,96,87,70,30.26,30.04,11,5,24,0.03
2013-11-24,22.6,17.8,13.6,17.0,8.5,3.5,85,67,49,30.49,30.25,8,4,21,0.00
2013-11-25,35.3,26.8,15.0,26.1,11.2,3.8,90,53,40,30.46,30.11,13,5,21,0.00
2013-11-26,44.7,37.9,30.3,43.4,36.4,27.4,96,94,88,30.09,29.60,10,4,21,1.25
2013-11-27,29.9,22.1,16.0,28.9,20.6,14.1,96,94,92,30.21,29.64,11,8,27,0.00
2013-11-28,31.6,21.7,13.2,24.7,17.6,11.1,92,85,51,30.38,30.21,13,4,23,0.05
2013-11-29,38.1,31.7,26.1,25.5,20.9,15.9,71,64,52,30.50,30.38,4,0,11,0.02
2013-11-30,45.0,37.6,30.9,28.7,25.4,22.0,72,61,52,30.40,30.15,13,7,21,0.00
2013-12-1,46.4,40.2,33.1,34.1,30.2,25.4,73,67,60,30.15,29.87,11,5,20,0.00
2013-12-2,44.1,41.6,38.9,39.6,35.7,32.3,90,80,69,29.86,29.67,5,3,13,0.00
2013-12-3,52.9,46.8,41.8,46.6,42.8,38.5,93,86,79,29.76,29.68,6,3,16,0.00
2013-12-4,61.1,54.1,46.8,51.6,48.4,44.3,91,81,70,29.83,29.71,10,6,25,0.00
2013-12-5,62.8,58.7,54.2,58.5,54.4,49.8,95,86,82,29.85,29.74,12,6,27,0.05
2013-12-6,59.4,38.1,31.0,58.0,37.0,30.0,96,96,95,30.07,29.76,8,2,20,1.02
2013-12-7,30.8,27.7,25.8,29.8,26.5,24.3,96,95,94,30.37,30.08,4,0,12,0.00
2013-12-8,42.1,34.3,26.7,41.3,33.3,25.5,97,96,95,30.31,29.94,12,4,26,0.92
2013-12-9,46.6,45.4,42.8,46.1,44.8,42.0,98,98,97,29.93,29.89,11,5,22,0.08
2013-12-10,34.7,27.1,23.0,33.9,25.5,19.3,97,94,85,30.26,29.88,8,3,20,0.15
2013-12-11,38.3,28.6,21.2,25.4,20.4,16.3,89,72,51,30.34,30.20,12,5,22,0.03
2013-12-12,27.8,23.6,19.5,21.0,13.5,8.4,84,66,44,30.40,30.26,8,3,16,0.00
2013-12-13,38.3,30.6,21.6,21.7,16.1,9.6,64,55,47,30.29,30.07,10,5,21,0.01
2013-12-14,43.7,40.3,35.3,42.0,32.6,17.7,95,77,45,30.07,29.61,23,7,39,0.47
2013-12-15,39.9,28.9,24.9,38.3,27.0,23.2,95,92,87,30.04,29.62,11,6,26,0.01
2013-12-16,36.2,30.1,24.2,30.7,26.8,22.2,94,88,79,30.10,29.97,16,9,28,0.01
2013-12-17,43.8,35.1,28.8,35.8,30.4,19.3,90,83,64,30.05,29.81,13,6,28,0.08
2013-12-18,37.4,29.8,22.5,22.5,20.2,17.6,82,68,52,30.19,30.05,14,6,28,0.00
2013-12-19,48.3,40.4,31.9,27.0,22.9,18.0,61,50,42,30.16,29.98,16,8,30,0.00
2013-12-20,53.9,47.8,41.2,43.3,32.8,25.1,74,56,44,30.02,29.90,12,7,32,0.00
2013-12-21,65.8,58.8,51.5,58.5,51.4,42.4,82,76,69,29.91,29.60,18,12,40,0.01
2013-12-22,66.1,55.2,51.5,59.2,52.4,49.5,95,91,77,29.87,29.60,23,9,45,1.02
2013-12-23,51.4,37.4,26.5,50.0,35.6,23.2,95,93,87,30.21,29.84,10,4,26,0.20
2013-12-24,26.2,21.5,14.4,23.1,17.2,9.6,92,83,74,30.40,30.19,9,4,22,0.00
2013-12-25,34.5,24.7,14.0,20.5,14.4,6.3,81,65,53,30.38,30.17,15,6,30,0.00
2013-12-26,35.9,31.4,26.0,25.7,21.3,17.4,83,67,54,30.29,30.14,8,3,18,0.00
2013-12-27,44.0,36.0,28.2,23.7,19.4,11.8,60,51,42,30.34,30.25,7,2,14,0.00
2013-12-28,45.1,39.0,33.3,38.1,24.6,20.6,93,57,41,30.26,29.91,11,6,24,0.20
2013-12-29,43.2,40.4,35.7,41.9,38.6,32.5,96,93,87,29.90,29.66,13,5,22,1.00
2013-12-30,36.4,30.1,27.0,34.7,28.6,25.6,95,94,92,30.09,29.86,7,2,18,0.04
2013-12-31,33.0,28.2,23.7,26.7,22.2,19.8,94,79,58,30.28,30.08,14,4,24,0.00
2014-1-1,45.3,36.8,27.9,27.2,21.6,18.4,79,55,38,30.23,29.92,14,8,24,0.00
2014-1-2,39.1,30.9,11.0,35.5,26.6,8.6,95,85,57,29.92,29.56,16,8,33,0.12